EW8155 Weather Reports


time (UTC)temp
C
wind
direction
speed
KPH
gust
KPH
rain 1hr
cm
rain 24hr
cm
rain mn
cm
humidity
%
barometer
mb
20260509234526 15 249 12.9 29.0 0.00 0.36 0.05 87 1003.2
20260509233032 15 257 12.9 40.2 0.00 0.36 0.05 86 1003.5
20260509231523 15 208 16.1 41.8 0.00 0.36 0.05 83 1003.6
20260509230034 17 250 12.9 37.0 0.00 0.36 0.05 79 1003.3
20260509224522 16 250 19.3 33.8 0.00 0.36 0.05 80 1003.2
20260509223018 16 233 16.1 32.2 0.00 0.36 0.05 81 1003.2
20260509221514 16 243 14.5 30.6 0.00 0.36 0.05 84 1003.0
20260509220014 15 200 11.3 27.4 0.00 0.36 0.05 85 1003.0
20260509214512 16 246 11.3 32.2 0.00 0.36 0.05 84 1003.0
20260509213010 15 261 12.9 20.9 0.00 0.36 0.05 86 1003.0
20260509211506 15 240 11.3 24.1 0.00 0.36 0.05 87 1002.9
20260509210004 15 261 6.4 19.3 0.00 0.36 0.05 88 1003.0
20260509204600 13 219 3.2 17.7 0.00 0.36 0.05 89 1002.9
20260509203100 13 211 6.4 16.1 0.00 0.36 0.05 90 1002.9
20260509201603 13 261 11.3 24.1 0.00 0.36 0.05 91 1002.7
20260509200055 12 246 0.0 0.0 0.00 0.36 0.05 91 1002.5
20260509194558 12 238 0.0 0.0 0.00 0.38 0.05 91 1002.5
20260509193051 12 237 0.0 0.0 0.00 0.38 0.05 91 1002.4
20260509191604 12 237 0.0 4.8 0.00 0.38 0.05 90 1002.4
20260509190049 12 240 1.6 8.0 0.00 0.38 0.05 90 1002.3
20260509184554 12 253 3.2 8.0 0.00 0.38 0.05 90 1002.2
20260509183053 11 217 4.8 12.9 0.00 0.38 0.05 89 1002.2
20260509181548 11 221 4.8 11.3 0.03 0.38 0.05 90 1002.1
20260509180053 11 257 0.0 0.0 0.03 0.38 0.05 90 1001.8
20260509174546 11 244 0.0 0.0 0.03 0.38 0.05 90 1001.7
20260509173054 11 240 0.0 1.6 0.03 0.38 0.05 91 1001.6
20260509171541 11 235 1.6 6.4 0.00 0.36 0.03 92 1001.5
20260509170039 11 247 0.0 0.0 0.00 0.36 0.03 92 1001.4
20260509164538 11 239 0.0 0.0 0.00 0.36 0.03 92 1001.3
20260509163037 11 240 0.0 0.0 0.00 0.36 0.03 92 1001.2
20260509161549 11 244 0.0 0.0 0.00 0.36 0.03 92 1001.3
20260509160038 11 244 0.0 0.0 0.00 0.36 0.03 92 1001.2
20260509154539 11 243 0.0 0.0 0.00 0.38 0.03 92 1001.3
20260509153049 11 244 0.0 0.0 0.00 0.38 0.03 92 1001.4
20260509151529 11 244 0.0 0.0 0.00 0.38 0.03 92 1001.4
20260509150027 11 244 0.0 0.0 0.00 0.38 0.03 92 1001.6
20260509144525 11 245 0.0 0.0 0.00 0.38 0.03 92 1001.6
20260509143024 12 245 0.0 0.0 0.00 0.38 0.03 93 1001.7
20260509141532 12 244 0.0 0.0 0.00 0.38 0.03 92 1001.7
20260509140020 12 242 0.0 0.0 0.00 0.38 0.03 92 1001.8
20260509134520 12 232 0.0 0.0 0.00 0.38 0.03 92 1001.7
20260509133021 12 232 0.0 3.2 0.00 0.38 0.03 92 1001.6
20260509131519 12 225 0.0 0.0 0.03 0.38 0.03 92 1001.6
20260509130015 12 220 0.0 4.8 0.03 0.38 0.03 92 1001.5
20260509124513 13 213 1.6 9.7 0.03 0.43 0.03 92 1001.5
20260509123010 13 238 1.6 6.4 0.05 0.43 0.03 92 1001.6
20260509121509 13 247 3.2 8.0 0.05 0.41 0.00 92 1001.9
20260509120008 13 246 0.0 6.4 0.05 0.41 0.00 92 1001.9
20260509114507 13 247 3.2 11.3 0.05 0.56 0.41 92 1002.1
20260509113007 13 246 4.8 12.9 0.00 0.51 0.36 92 1002.1
20260509111505 13 281 6.4 17.7 0.00 0.51 0.36 92 1002.2
20260509110005 12 296 4.8 8.0 0.00 0.51 0.36 92 1002.0
20260509104605 12 282 1.6 6.4 0.00 0.51 0.36 92 1002.0
20260509103108 12 292 1.6 6.4 0.00 0.51 0.36 91 1001.7
20260509101622 12 283 0.0 8.0 0.00 0.51 0.36 91 1001.4
20260509094602 12 304 0.0 0.0 0.00 0.51 0.36 91 1001.7
20260509093059 12 304 0.0 0.0 0.00 0.51 0.36 91 1001.6
20260509091556 13 290 0.0 4.8 0.00 0.51 0.36 91 1001.7
20260509090059 13 292 1.6 9.7 0.03 0.51 0.36 91 1002.0
20260509084600 13 342 0.0 6.4 0.05 0.51 0.36 91 1002.2
20260509083152 13 290 0.0 6.4 0.08 0.51 0.36 91 1002.3
20260509081551 13 311 4.8 11.3 0.13 0.51 0.36 91 1002.2
20260509080050 13 327 9.7 19.3 0.13 0.51 0.33 90 1002.4
20260509074606 13 292 4.8 14.5 0.13 0.48 0.30 90 1002.3
20260509073102 13 289 6.4 16.1 0.13 0.46 0.28 90 1002.2
20260509071548 14 260 8.0 17.7 0.10 0.43 0.23 90 1002.1
20260509070044 14 257 8.0 16.1 0.15 0.41 0.23 90 1001.7
20260509064540 15 277 0.0 4.8 0.10 0.36 0.18 89 1001.4
20260509063053 15 265 0.0 4.8 0.08 0.33 0.15 88 1001.5
20260509061539 15 288 3.2 9.7 0.05 0.33 0.15 87 1001.5
20260509060048 15 281 3.2 14.5 0.00 0.25 0.08 86 1001.4
20260509054537 16 289 6.4 16.1 0.00 0.28 0.08 86 1001.4
20260509053050 16 286 8.0 17.7 0.00 0.28 0.08 85 1001.4
20260509051535 16 275 8.0 14.5 0.00 0.28 0.08 85 1001.2
20260509050034 16 292 6.4 14.5 0.00 0.28 0.08 84 1001.3
20260509044534 16 259 8.0 17.7 0.00 0.28 0.08 84 1001.2
20260509043041 17 275 11.3 19.3 0.00 0.28 0.08 83 1001.2
20260509041534 17 299 4.8 17.7 0.00 0.28 0.08 83 1001.3
20260509040034 17 279 9.7 20.9 0.00 0.28 0.08 80 1001.3
20260509034528 17 280 9.7 19.3 0.00 0.28 0.08 80 1001.5
20260509033028 18 305 11.3 25.7 0.00 0.28 0.08 80 1001.7
20260509031527 18 281 11.3 24.1 0.00 0.28 0.08 79 1001.9
20260509030026 18 279 9.7 19.3 0.00 0.28 0.08 79 1002.0
20260509024526 18 290 8.0 25.7 0.00 0.28 0.08 78 1001.9
20260509023026 18 284 12.9 22.5 0.00 0.28 0.08 77 1001.9
20260509021525 20 279 12.9 24.1 0.00 0.28 0.08 72 1001.8
20260509020024 19 281 6.4 17.7 0.00 0.28 0.08 75 1001.7
20260509014527 20 288 11.3 24.1 0.00 0.28 0.08 72 1001.9
20260509013022 19 297 9.7 22.5 0.00 0.28 0.08 76 1002.0
20260509011519 18 254 9.7 17.7 0.00 0.28 0.08 75 1002.2
20260509010025 20 277 11.3 25.7 0.00 0.28 0.08 74 1002.3
20260509004521 19 273 14.5 22.5 0.00 0.28 0.08 74 1002.6
20260509003014 19 302 9.7 25.7 0.00 0.28 0.08 77 1002.8
20260509001509 18 271 6.4 25.7 0.00 0.28 0.08 78 1003.2
20260509000004 19 333 14.5 27.4 0.00 0.28 0.08 78 1003.4